This is the latest recevied weather packets stored in our database for station/object HB9KBJ-4. If no packets are shown the sender has not sent any weather packets the latest 1 day(s).
| Time | Temp. | Humidity | Pressure | Rain* | Wind** | Luminosity | Snow |
|---|---|---|---|---|---|---|---|
| 1777998392 | 15° C | 69% | - | 2.03 mm | 2.24 m/s, 283° | - | - |
| 1777998091 | 15° C | 70% | - | 2.03 mm | 1.79 m/s, 302° | - | - |
| 1777996289 | 14.44° C | 68% | - | 0.76 mm | 0 m/s | - | - |
| 1777995689 | 15° C | 67% | - | 0.51 mm | 0.45 m/s, 287° | - | - |
| 1777995088 | 15° C | 65% | - | 0.51 mm | 0.45 m/s, 240° | - | - |
| 1777994488 | 15° C | 65% | - | 0.51 mm | 0.45 m/s, 287° | - | - |
| 1777994187 | 15° C | 65% | - | 0.51 mm | 0.89 m/s, 288° | - | - |
| 1777993887 | 15° C | 64% | - | 0.51 mm | 0.89 m/s, 107° | - | - |
| 1777993587 | 15.56° C | 63% | - | 0.51 mm | 0.45 m/s, 122° | - | - |
| 1777993287 | 16.11° C | 61% | - | 0.51 mm | 1.34 m/s, 15° | - | - |
| 1777992986 | 16.67° C | 61% | - | 0.51 mm | 0.89 m/s, 89° | - | - |
| 1777992686 | 16.67° C | 60% | - | 0.51 mm | 0.89 m/s, 46° | - | - |
| 1777991785 | 17.78° C | 58% | - | 0.51 mm | 0.45 m/s, 32° | - | - |
| 1777991185 | 18.33° C | 56% | - | 0.51 mm | 0.45 m/s, 23° | - | - |
| 1777990884 | 17.78° C | 56% | - | 0.51 mm | 0.45 m/s, 90° | - | - |
| 1777990584 | 17.78° C | 56% | - | 0.51 mm | 0.45 m/s, 23° | - | - |
| 1777990284 | 17.22° C | 57% | - | 0.51 mm | 0.45 m/s, 69° | - | - |
| 1777989984 | 17.78° C | 57% | - | 0.51 mm | 0.45 m/s, 115° | - | - |
| 1777989383 | 17.78° C | 56% | - | 0.51 mm | 0.45 m/s, 68° | - | - |
| 1777989082 | 17.78° C | 57% | - | 0.51 mm | 0.89 m/s, 111° | - | - |
| 1777988782 | 17.22° C | 58% | - | 0.51 mm | 0.45 m/s, 75° | - | - |
| 1777988482 | 17.22° C | 59% | - | 0.51 mm | 0 m/s | - | - |
| 1777988182 | 16.67° C | 58% | - | 0.51 mm | 0 m/s | - | - |
| 1777987881 | 17.22° C | 58% | - | 0.51 mm | 0 m/s | - | - |
| 1777987581 | 17.22° C | 57% | - | 0.51 mm | 0 m/s | - | - |
* Rain since midnight (hover to see other rain measurements)
** Current wind speed in m/s (hover to see current wind gust speed)